Regional Weather Roundup
Issued by NWS Wilmington, NC

Home | Current Version | Previous Version | Text Only | Print | Product List | Glossary On
Versions: 1 2 3 4 5 6 7 8 9 10 11 12 13 14 15 16 17 18 19 20 21 22 23 24 25 26 27
000
ASUS42 KILM 150113
RWRILM
RWRILM
REGIONAL HOURLY WEATHER ROUNDUP
NATIONAL WEATHER SERVICE WILMINGTON NC
800 PM EST THU DEC 14 2017

NOTE: "FAIR" INDICATES FEW OR NO CLOUDS BELOW 12,000 FEET WITH NO
SIGNIFICANT WEATHER AND/OR OBSTRUCTIONS TO VISIBILITY.

...............WFO WILMINGTON COUNTY WARNING AREA...............

......COASTAL NC AND SC COUNTIES......

CITY           SKY/WX    TMP DP  RH WIND       PRES   REMARKS
WILMINGTON     CLOUDY    43  38  82 CALM      29.98R
N MYRTLE BEACH CLOUDY    45  44  97 CALM      29.98R
MYRTLE BEACH   CLOUDY    47  43  86 CALM      29.99R

......INLAND NC AND SC COUNTIES.......

CITY           SKY/WX    TMP DP  RH WIND       PRES   REMARKS
LUMBERTON      CLEAR     39  34  82 CALM      29.96R
ELIZABETHTOWN  NOT AVBL
WHITEVILLE     CLOUDY    42  36  78 CALM      29.96S
FLORENCE       CLOUDY    42  35  76 CALM      29.97R
DARLINGTON     CLEAR     40  34  79 CALM      29.96R
KINGSTREE      FAIR      41  37  87 CALM      29.97R
HARTSVILLE     FAIR      41  32  70 CALM      29.94S
BENNETTSVILLE  FAIR      37  34  87 CALM      29.96R
CONWAY         FAIR      39  39 100 CALM      29.98R
GEORGETOWN     FAIR      45  43  93 CALM      29.99R
MARION         FAIR      41  36  81 CALM      29.97S

....................REST OF NORTH CAROLINA......................

.........EASTERN NC.........

CITY           SKY/WX    TMP DP  RH WIND       PRES   REMARKS
CAPE HATTERAS  CLEAR     42  36  79 NE3       29.99R
JACKSONVILLE   CLEAR     37  34  89 CALM      29.99R
MOREHEAD CITY  CLEAR     42  39  89 CALM      29.99R
KENANSVILLE    CLEAR     36  32  87 CALM      29.98R
NEW BERN       CLEAR     36  33  89 CALM      29.99R
ELIZABETH CITY PTCLDY    42  36  79 N12       30.03R

.........CENTRAL NC.........

CITY           SKY/WX    TMP DP  RH WIND       PRES   REMARKS
RALEIGH DURHAM PTCLDY    41  27  57 NE7       29.99R
ROCKY MOUNT    CLEAR     39  31  72 CALM      30.00R
ROANOKE RAPIDS NOT AVBL
FAYETTEVILLE   CLEAR     41  32  70 CALM      29.96R
HOFFMAN        CLEAR     37  31  82 CALM      29.96R

.........WESTERN NC.........

CITY           SKY/WX    TMP DP  RH WIND       PRES   REMARKS
CHARLOTTE      PTCLDY    48  29  47 CALM      29.93R
GREENSBORO     MOCLDY    44  26  49 NE10      29.96R
HICKORY        NOT AVBL
BOONE          NOT AVBL
ASHEVILLE      NOT AVBL

.....................REST OF SOUTH CAROLINA.....................

.........EASTERN SC.........

CITY           SKY/WX    TMP DP  RH WIND       PRES   REMARKS
CHARLESTON     CLOUDY    49  43  80 SW5       29.99R
BEAUFORT MCAS  CLOUDY    50  46  86 CALM      30.00R
HILTON HEAD    PTCLDY    50  45  81 CALM      30.00S

.........CENTRAL SC.........

CITY           SKY/WX    TMP DP  RH WIND       PRES   REMARKS
COLUMBIA       CLOUDY    46  37  71 CALM      29.95R
ORANGEBURG     CLOUDY    46  36  68 SW5       29.97R
SUMTER SHAW    CLOUDY    44  34  68 CALM      29.94R

.........WESTERN SC.........

CITY           SKY/WX    TMP DP  RH WIND       PRES   REMARKS
GREENVILLE     NOT AVBL
ROCK HILL      CLEAR     39  30  70 CALM      29.93R HAZE
ANDERSON       CLEAR     49  29  46 W6        29.93R
CLEMSON        NOT AVBL
GREENWOOD      CLEAR     45  34  65 SW10      29.95R


...................COASTAL AND OFFSHORE REPORTS..................

................LOCAL PIERS AND NC RESERVE................


STATION/POSITION TIME  SKY/WX   TEMP    WIND        PRES    VSBY
                                AIR SEA DIR/SP/G
                 (UTC)          (F)     (DEG/KT/KT) (MB)    (MI)
JOHNY MRCER PIER 0048            51 56  260/  5/  7 1014.9R
NC RESRV MASNBRO 2345            49     300/  1     1014.0
OCEAN CREST PIER NOT AVBL
SPRINGMAID  PIER 0048                               1018.1R


................COASTAL AND OFFSHORE BUOYS................


STATION/POSITION TIME  SKY/WX   TEMP    WIND        PRES    VSBY
                                AIR SEA DIR/SP/G
                 (UTC)          (F)     (DEG/KT/KT) (MB)    (MI)
DIMNDSHOAL 41025 0100            56     350/  8/ 14 1015.5
CAPE LOOKOUT     0100                    10/  5/  5 1015.7R
ONSLOW BAY 41036 NOT AVBL
ONSLOW BAY 41064 0008            58 64  280/  6/  8 1014.6R
ONSLOW BAY 41159 0100               64                N/A
WVE H/P(F/S)=  5/ 8

MASNBO INL 41110 0059               56                N/A
WVE H/P(F/S)=  2/ 8

WILM HARBR 41108 0100               57                N/A
WVE H/P(F/S)=  4/ 7

27SE WRITB 41037 0008            58 65  260/ 12/ 16 1014.7R
FRYING PAN 41013 0100            61     270/ 16/ 19 1014.8
SUNST NRSH 41024 0008            54     250/  6/  8 1014.5R
CAPRS NRSH 41029 0008            52 55  250/ 10/ 12 1014.8R
EDISTO     41004 0050               72  250/ 17/ 23 1015.2R
WVE H/P(F/S)=  4/ 6



..........OFFSHORE BUOYS BEYOND 100 NM OFFSHORE...........
.....IN A TRIANGLE---HAT TO BERMUDA TO BAHAMAS TO HAT.....


STATION/POSITION TIME  SKY/WX   TEMP    WIND        PRES    VSBY
                                AIR SEA DIR/SP/G
                 (UTC)          (F)     (DEG/KT/KT) (MB)    (MI)
150E HAT   41001 NOT AVBL
W BERMUDA  41048 0100            71     250/ 21/ 25 1016.4
ATLANTIC S 41049 0050            75 77  340/  6/ 10 1021.2R
WVE H/P(F/S)= 10/12 SWL H/P/D(F/S/D)= 10/320/12

E BAHAMAS  41046 0050            78 80   70/  6/  8 1019.9R
WVE H/P(F/S)=  6/11 SWL H/P/D(F/S/D)=  7/ 10/11

NE BAHAMAS 41047 0050            73     250/  8/ 10 1019.9R
WVE H/P(F/S)=  6/11 SWL H/P/D(F/S/D)=  7/ 30/11

120E CANVRL41010 NOT AVBL

END




USA.gov is the U.S. government's official web portal to all federal, state and local government web resources and services.